GPS BIIF-10 (40730 NORAD) Tracking and Keplerian Element Data

This shows tracking and keplerian element data for the satellite.

Feedback or suggestion? Click here.




ElementValue
Catalog40730
NameGPS BIIF-10
Epoch Orbit2495
Epoch Day345.04333417
Epoch Year2018
RAAN18.1341
Inclination55.5784
Eccentricity0.0040259
Argument of Perigee333.572
Mean Anonmoly26.2771
Mean Motion2.00564973
Decay Rate-8.6E-07
L11 40730U 15033A 18345.04333417 -.00000086 00000-0 00000+0 0 9996
L22 40730 55.5784 18.1341 0040259 333.5720 26.2771 2.00564973 24952

Live tracking and technical data element details for GPS BIIF-10 (NORAD 40730). GPS BIIF-10 can be tracked NOW for your location showing map with azimuth and elevation plus other details from your city location.

Track the satellite on the map from your city or location and see movement details for azimuth, elevation, latitude, longitude, range, height, and movement on the map or in text.







IsCatalogInMostPopularTable: catalog: 40730, numindb: 121
Update: records affected: 1



GetName: 40730 GPS BIIF-10

Hit Count: updated at: Thu, 13 Dec 2018 04:26:37 GMT